Regional Weather Roundup
Issued by NWS

Home | Current Version | Previous Version | Graphics & Text | Print | Product List | Glossary On
Versions: 1 2 3 4 5 6 7 8 9 10 11 12 13 14 15 16 17 18 19 20 21 22 23 24 25 26 27 28 29 30 31 32 33 34 35 36 37 38 39 40 41 42 43 44 45 46 47 48 49 50
000
ASUS43 KMPX 282301
RWRMN
WEATHER ROUNDUP FOR MINNESOTA
NATIONAL WEATHER SERVICE TWIN CITIES/CHANHASSEN MN
500 PM CST WED JAN 28 2015


NOTE: "FAIR" INDICATES FEW OR NO CLOUDS BELOW 12,000 FEET WITH NO
SIGNIFICANT WEATHER AND/OR OBSTRUCTIONS TO VISIBILITY. N/A MEANS
CURRENT SKY AND/OR WEATHER CONDITIONS ARE NOT AVAILABLE.

MNZ060>063-068>070-290000-
   Twin Cities Metro

CITY           SKY/WX    TMP DP  RH WIND       PRES   REMARKS
TWIN CITIES    CLOUDY    31  27  85 E7        29.81S FOG     WCI  24
ST PAUL        CLOUDY    31  27  85 E6        29.82F FOG     WCI  25
CRYSTAL        CLOUDY    31  27  85 E5        29.81R FOG     WCI  26
BLAINE         CLOUDY    32  30  93 SE7       29.81S FOG     WCI  26
LAKEVILLE      CLOUDY    30  28  93 E6        29.78S FOG     WCI  24
EDEN PRAIRIE   CLOUDY    32  28  85 SE5       29.79S FOG     WCI  27
SOUTH ST PAUL  CLOUDY    32  27  83 E5        29.81R HAZE    WCI  27
LAKE ELMO      CLOUDY    32  28  86 SE5       29.82S FOG     WCI  27
$$
MNZ001>005-007-008-013>017-022>024-027-028-290000-
   Northwest Minnesota

CITY           SKY/WX    TMP DP  RH WIND       PRES   REMARKS
BEMIDJI        CLOUDY    31  31  99 CALM      29.77S FOG
HALLOCK        CLOUDY    32  30  93 N17       29.86R FOG     WCI  21
ROSEAU         FOG       34  28  80 CALM      29.81R VSB 1
WARROAD        CLOUDY    32  28  86 CALM      29.81R FOG
THIEF RVR FALL CLOUDY    32  30  93 NW7       29.81R VSB 3/4 WCI  26
CROOKSTON      FOG       32  32 100 NW9       29.84R VSB 1/2 WCI  24
FOSSTON        CLOUDY    30  30 100 CALM      29.80R FOG
DETROIT LAKES  CLOUDY    32  32 100 SW3       29.79R FOG
MOORHEAD       CLOUDY    36  36 100 W3        29.82R FOG
PARK RAPIDS    FOG       31  30  96 S5        29.77R VSB 3/4 WCI  26
MAHNOMEN       CLOUDY    33  31  96 W8        29.78R FOG     WCI  25
$$
MNZ006-009>011-018-025>026-290000-
   North Central Minnesota

CITY           SKY/WX    TMP DP  RH WIND       PRES   REMARKS
BAUDETTE       CLOUDY    31  30  96 S3        29.78S FOG
FLAG ISLAND    CLOUDY    28  28 100 CALM      29.80R FOG
INTL FALLS     CLOUDY    27  25  93 S5        29.80S FOG     WCI  21
WASKISH        FOG       30  30 100 CALM      29.79R VSB 3/4
BIG FORK       MIX PCPN  28  27  93 S3        29.79S
LONGVILLE      CLOUDY    28  28 100 S3        29.79R FOG
GRAND RAPIDS   CLOUDY    27  25  93 S6        29.79S WCI  20
CRANE LAKE     CLOUDY    25  23  93 S3        29.83S FOG
ORR            CLOUDY    25  21  86 CALM      29.78R
COOK           CLOUDY    27  23  86 S5        29.81R FOG     WCI  21
WALKER         CLOUDY    30  29  97 CALM      29.78R FOG
$$
MNZ012-019>021-037-290000-
   Northeast Minnesota

CITY           SKY/WX    TMP DP  RH WIND       PRES   REMARKS
DULUTH         CLOUDY    29  22  75 S6        29.80R HAZE    WCI  23
ELY            CLOUDY    27  23  86 S6        29.80S WCI  20
HIBBING        CLOUDY    28  22  78 S3        29.80S
EVELETH        CLOUDY    28  25  86 CALM      29.82R
DULUTH HARBOR  CLOUDY    32  27  80 CALM      29.85S
TWO HARBORS    CLOUDY    30  25  80 CALM      29.81R
SILVER BAY     CLOUDY    28  25  86 CALM      29.82R FOG
GRAND MARAIS     N/A     31  25  78 E5        29.86F WCI  26
G MARAIS ARPRT   N/A     25  19  80 SE3       29.80S FOG
$$
MNZ029>031-032-039>041-046>048-054>057-064-290000-
   West Central Minnesota

CITY           SKY/WX    TMP DP  RH WIND       PRES   REMARKS
FERGUS FALLS   FOG       32  32 100 S3        29.82R VSB 3/4
WHEATON        CLOUDY    32  30  93 SE3       29.81R FOG
MORRIS         FOG       32  30  93 SE5       29.78R VSB 1/2 WCI  27
ALEXANDRIA     FOG       31  30  96 SE6       29.78R VSB 1/2 WCI  25
ELBOW LAKE     FOG       31  31 100 S6        29.78R VSB 3/4 WCI  26
WADENA         FOG       28  28 100 S6        29.78R VSB 1/2 WCI  22
GLENWOOD       FOG       30  30 100 SE5       29.77S VSB 1/4 WCI  25
APPLETON       CLOUDY    34  32  93 E5        29.76R FOG     WCI  30
BENSON         CLOUDY    32  30  93 S5        29.77R FOG     WCI  27
ORTONVILLE     CLOUDY    34  30  86 CALM      29.77R FOG
MADISON        CLOUDY    37  36  93 E5        29.75S FOG
WILLMAR        FOG       34  30  86 SE7       29.78S VSB 3/4 WCI  28
$$
MNZ033>034-036-042>043-049>051-058-059-290000-
   Central Minnesota

CITY           SKY/WX    TMP DP  RH WIND       PRES   REMARKS
ST CLOUD       CLOUDY    29  27  92 SE6       29.80R FOG     WCI  23
SAUK CENTRE    CLOUDY    30  30  98 SE6       29.79R FOG     WCI  24
PAYNESVILLE    CLOUDY    28  28 100 E5        29.78S FOG     WCI  23
AITKIN         CLOUDY    30  25  80 CALM      29.80R HAZE
PINE RIVER     CLOUDY    28  28 100 S6        29.83R FOG     WCI  22
BRAINERD       CLOUDY    29  26  89 SW7       29.80R FOG     WCI  22
STAPLES        CLOUDY    28  28 100 S7        29.79R FOG     WCI  21
LONG PRAIRIE   CLOUDY    30  28  93 SE5       29.79R FOG     WCI  25
LITTLE FALLS   CLOUDY    30  28  93 SE6       29.80R FOG     WCI  24
LITCHFIELD     CLOUDY    32  32 100 SE6       29.78S FOG     WCI  26
BUFFALO        CLOUDY    31  28  90 CALM      29.81R FOG
MAPLE LAKE     CLOUDY    32  30  94 E3        29.81R FOG
$$
MNZ037-044-045-052-053-290000-
   East Central Minnesota

CITY           SKY/WX    TMP DP  RH WIND       PRES   REMARKS
PRINCETON      CLOUDY    30  27  86 SE7       29.81S FOG     WCI  23
MORA           CLOUDY    28  25  86 S6        29.83S WCI  22
CAMBRIDGE      CLOUDY    30  25  80 SE3       29.80S HAZE
RUSH CITY      CLOUDY    30  26  84 CALM      29.82S
MOOSE LAKE     CLOUDY    30  27  86 SW5       29.81S FOG     WCI  25
HINCKLEY       CLOUDY    32  28  86 S6        29.82R FOG     WCI  26
CLOQUET        CLOUDY    28  23  80 S3        29.81R
MCGREGOR       CLOUDY    30  27  86 S3        29.82R
$$
MNZ071>073-080-081-089-090-097-098-290000-
   Southwest Minnesota

CITY           SKY/WX    TMP DP  RH WIND       PRES   REMARKS
MONTEVIDEO     CLOUDY    34  34 100 SE5       29.76F FOG     WCI  30
GRANITE FALLS  CLOUDY    33  31  94 CALM      29.76S FOG
CANBY          CLOUDY    35  33  91 E5        29.74S FOG     WCI  31
MARSHALL       CLOUDY    34  30  86 SE5       29.75R WCI  30
REDWOOD FALLS  CLOUDY    34  31  88 SE3       29.76R FOG
OLIVIA         CLOUDY    32  32 100 SE3       29.76S FOG
PIPESTONE      CLOUDY    36  34  93 CALM      29.71R FOG
WINDOM         CLOUDY    34  32  93 CALM      29.74R FOG
WORTHINGTON    CLOUDY    34  30  86 CALM      29.73R
JACKSON        CLOUDY    34  32  93 SE5       29.72F FOG     WCI  30
TRACY          CLOUDY    34  32  94 CALM      29.74R FOG
SLAYTON        CLOUDY    32  32  99 CALM      29.73R FOG
$$
MNZ065>067-074>077-082>085-091>093-290000-
   South Central Minnesota

CITY           SKY/WX    TMP DP  RH WIND       PRES   REMARKS
MANKATO        CLOUDY    34  28  80 S5        29.78R WCI  30
NEW ULM        CLOUDY    34  30  86 SE3       29.76S FOG
ST JAMES       CLOUDY    36  32  87 SE6       29.76S FOG
FAIRMONT       CLOUDY    34  28  80 SE6       29.73R WCI  29
GLENCOE        CLOUDY    33  32  96 SE7       29.77F FOG     WCI  27
FARIBAULT      CLOUDY    34  30  86 SE7       29.77S FOG     WCI  28
OWATONNA       CLOUDY    34  28  80 SE12      29.75F HAZE    WCI  25
WASECA         CLOUDY    32  30  93 S5        29.78R FOG     WCI  27
ALBERT LEA     CLOUDY    34  32  93 SE15      29.73F FOG     WCI  24
$$
MNZ078>079-086>088-094>096-290000-
   Southeast Minnesota

CITY           SKY/WX    TMP DP  RH WIND       PRES   REMARKS
ROCHESTER      CLOUDY    33  28  81 S16G23    29.78R HAZE    WCI  23
RED WING       CLOUDY    32  27  80 SE12      29.80S HAZE    WCI  23
STANTON        CLOUDY    32  28  86 E7        29.76F WCI  26
DODGE CENTER   CLOUDY    34  30  86 SE16      29.75F FOG     WCI  23
WINONA         CLOUDY    34  28  80 SE6       29.82S WCI  29
AUSTIN         CLOUDY    34  30  86 SE7       29.76S FOG     WCI  28
PRESTON        CLOUDY    32  27  80 SE10      29.79R WCI  24
$$
ABBREVIATIONS USED IN REMARKS
   TC - TEMPERATURES IN CELSIUS
  WCI - WIND CHILL INDEX
   HX - HEAT INDEX
  VSB - VISIBILITY
$$


USA.gov is the U.S. government's official web portal to all federal, state and local government web resources and services.